Location: Oklahoma City
(35.4680°N, 97.5160°W)
Time: 14:08:42
(UTC-05:00)

ISS - All Passes

Search period start: 22 May 2015 00:00
Search period end: 01 June 2015 00:00
Orbit: 399 x 404 km, 51.6° (Epoch: 22 May)

Date Brightness Start Highest point End Pass type
(mag) Time Alt. Az. Time Alt. Az. Time Alt. Az.
22 May - 00:58:11 10° S 01:00:20 17° SE 01:02:34 10° E night (unlit)
22 May - 02:33:32 10° WSW 02:36:34 36° NW 02:39:37 10° NNE visible
22 May - 07:28:54 10° NNE 07:29:29 10° NNE 07:30:07 10° NNE daylight
22 May - 09:03:15 10° NW 09:06:29 60° NE 09:09:43 10° ESE daylight
22 May - 10:42:09 10° WSW 10:42:34 10° SW 10:42:51 10° SW daylight
23 May - 01:40:06 10° SW 01:43:20 78° NW 01:46:36 10° NE visible
23 May - 03:18:58 10° NW 03:20:15 12° NNW 03:21:28 10° N visible
23 May - 08:10:18 10° NNW 08:13:13 30° NE 08:16:10 10° E daylight
23 May - 09:46:56 10° WNW 09:49:32 22° SW 09:52:05 10° S daylight
24 May - 00:47:05 10° SSW 00:50:11 45° SE 00:53:18 10° ENE night (unlit)
24 May - 02:24:24 10° WNW 02:26:46 18° NNW 02:29:06 10° NNE visible
24 May - 07:17:32 10° NNW 07:19:49 18° NNE 07:22:09 10° ENE daylight
24 May - 08:53:16 10° WNW 08:56:26 47° SW 08:59:34 10° SSE daylight
24 May - 23:54:36 10° S 23:57:03 20° SE 23:59:34 10° E night (unlit)
25 May - 01:30:25 10° W 01:33:21 31° NW 01:36:18 10° NNE visible
25 May - 06:25:10 10° N 06:26:17 11° NNE 06:27:30 10° NE daylight
25 May - 07:59:58 10° NW 08:03:13 74° NE 08:06:29 10° SE daylight
26 May - 00:36:48 10° WSW 00:40:01 64° NW 00:43:15 10° NE night (unlit)
26 May - 02:16:13 10° NW 02:17:00 11° NNW 02:17:42 10° N visible
26 May - 07:06:52 10° NNW 07:09:53 35° NE 07:12:56 10° ESE daylight
26 May - 08:43:48 10° W 08:46:09 18° SW 08:48:25 10° S daylight
26 May - 23:43:35 10° SSW 23:46:45 55° SE 23:49:56 10° ENE night (unlit)
27 May - 01:21:15 10° WNW 01:23:25 16° NNW 01:25:32 10° NNE visible
27 May - 06:13:58 10° NNW 06:16:26 20° NNE 06:18:57 10° E daylight
27 May - 07:49:54 10° WNW 07:52:58 39° SW 07:56:01 10° SSE daylight
27 May - 22:50:53 10° S 22:53:32 24° SE 22:56:15 10° ENE night (unlit)
28 May - 00:27:04 10° W 00:29:53 27° NW 00:32:43 10° NNE visible
28 May - 05:21:22 10° N 05:22:52 13° NNE 05:24:25 10° NE visible
28 May - 06:56:26 10° NW 06:59:43 89° ENE 07:02:58 10° SE daylight
28 May - 21:59:16 10° SSE 22:00:21 11° SE 22:01:34 10° ESE night (unlit)
28 May - 23:33:16 10° WSW 23:36:27 52° NW 23:39:38 10° NE night (unlit)
29 May - 06:03:13 10° NW 06:06:19 40° NE 06:09:25 10° ESE daylight
29 May - 07:40:29 10° W 07:42:30 15° SW 07:44:26 10° SSW daylight
29 May - 22:39:53 10° SW 22:43:05 68° SE 22:46:19 10° NE night (unlit)
30 May - 00:17:53 10° WNW 00:19:49 15° NNW 00:21:42 10° N visible
30 May - 05:10:11 10° NNW 05:12:49 22° NNE 05:15:28 10° E visible
30 May - 06:46:18 10° WNW 06:49:16 32° SW 06:52:12 10° SSE daylight
30 May - 21:46:57 10° SSW 21:49:46 29° SE 21:52:39 10° ENE visible
30 May - 23:23:29 10° W 23:26:11 23° NNW 23:28:53 10° NNE visible
31 May - 04:17:24 10° N 04:19:10 14° NNE 04:20:59 10° ENE visible
31 May - 05:52:41 10° NW 05:55:56 76° SW 05:59:11 10° SE daylight
31 May - 20:54:50 10° SSE 20:56:30 14° SE 20:58:16 10° E daylight
31 May - 22:29:32 10° WSW 22:32:39 44° NW 22:35:46 10° NE visible
